| time (UTC) | temp F | wind direction | speed knots | gust knots | rain 1hr in | rain 24hr in | rain mn in | humidity % | barometer mb |
| 20260906123037 | 71 | 360 | 1.7 | 3.5 | 0.00 | 0.00 | 0.00 | 95 | 1016.9 |
| 20260906121525 | 71 | 360 | 1.7 | 4.3 | 0.00 | 0.00 | 0.00 | 95 | 1016.6 |
| 20260906120021 | 70 | 360 | 1.7 | 3.5 | 0.00 | 0.00 | 0.00 | 96 | 1016.2 |
| 20260906114520 | 70 | 360 | 1.7 | 4.3 | 0.00 | 0.00 | 0.00 | 95 | 1015.9 |
| 20260906113016 | 70 | 360 | 1.7 | 7.0 | 0.00 | 0.00 | 0.00 | 96 | 1015.6 |
| 20260906111515 | 70 | 360 | 0.9 | 2.6 | 0.00 | 0.00 | 0.00 | 96 | 1015.6 |
| 20260906110014 | 70 | 360 | 0.0 | 1.7 | 0.00 | 0.00 | 0.00 | 95 | 1015.5 |
| 20260906104531 | 70 | 360 | 0.9 | 2.6 | 0.00 | 0.00 | 0.00 | 95 | 1015.3 |
| 20260906103035 | 70 | 360 | 0.9 | 2.6 | 0.00 | 0.00 | 0.00 | 95 | 1015.1 |
| 20260906101512 | 70 | 360 | 0.9 | 2.6 | 0.00 | 0.00 | 0.00 | 95 | 1015.0 |
| 20260906100024 | 70 | 360 | 0.0 | 4.3 | 0.00 | 0.00 | 0.00 | 95 | 1014.9 |
| 20260906094512 | 70 | 360 | 0.0 | 4.3 | 0.00 | 0.00 | 0.00 | 95 | 1014.9 |
| 20260906093016 | 70 | 360 | 1.7 | 4.3 | 0.00 | 0.00 | 0.00 | 95 | 1014.8 |
| 20260906091520 | 70 | 360 | 0.0 | 0.0 | 0.00 | 0.00 | 0.00 | 95 | 1014.9 |
| 20260906090010 | 70 | 360 | 0.0 | 0.0 | 0.00 | 0.00 | 0.00 | 95 | 1015.0 |
| 20260906084508 | 70 | 360 | 0.0 | 0.0 | 0.00 | 0.00 | 0.00 | 95 | 1015.0 |
| 20260906083007 | 70 | 360 | 0.0 | 0.0 | 0.00 | 0.00 | 0.00 | 95 | 1015.0 |
| 20260906081506 | 70 | 360 | 0.0 | 0.9 | 0.00 | 0.00 | 0.00 | 95 | 1015.0 |
| 20260906080006 | 70 | 360 | 0.0 | 2.6 | 0.00 | 0.00 | 0.00 | 95 | 1014.9 |
| 20260906074505 | 70 | 360 | 0.0 | 1.7 | 0.00 | 0.00 | 0.00 | 95 | 1015.1 |
| 20260906073004 | 70 | 360 | 0.0 | 0.0 | 0.00 | 0.00 | 0.00 | 95 | 1015.2 |
| 20260906071503 | 69 | 360 | 0.0 | 2.6 | 0.00 | 0.00 | 0.00 | 95 | 1015.2 |
| 20260906070007 | 69 | 360 | 0.0 | 1.7 | 0.00 | 0.00 | 0.00 | 95 | 1015.0 |
| 20260906064502 | 69 | 360 | 0.0 | 0.0 | 0.00 | 0.00 | 0.00 | 95 | 1015.2 |
| 20260906063001 | 69 | 360 | 0.0 | 0.0 | 0.00 | 0.00 | 0.00 | 95 | 1015.3 |
| 20260906061601 | 70 | 360 | 0.0 | 0.0 | 0.00 | 0.00 | 0.00 | 94 | 1015.5 |
| 20260906060100 | 70 | 360 | 0.0 | 0.0 | 0.00 | 0.00 | 0.00 | 94 | 1015.5 |
| 20260906054623 | 70 | 360 | 0.0 | 0.0 | 0.00 | 0.00 | 0.00 | 94 | 1015.5 |
| 20260906053056 | 70 | 360 | 0.0 | 0.0 | 0.00 | 0.00 | 0.00 | 94 | 1015.4 |
| 20260906051555 | 70 | 360 | 0.0 | 0.0 | 0.00 | 0.00 | 0.00 | 94 | 1015.3 |
| 20260906044550 | 70 | 360 | 0.0 | 2.6 | 0.00 | 0.00 | 0.00 | 94 | 1014.8 |
| 20260906043047 | 71 | 360 | 0.9 | 3.5 | 0.00 | 0.00 | 0.00 | 94 | 1014.5 |
| 20260906041545 | 71 | 360 | 0.0 | 0.0 | 0.00 | 0.00 | 0.00 | 94 | 1014.4 |
| 20260906040047 | 71 | 360 | 0.0 | 0.9 | 0.00 | 0.00 | 0.00 | 93 | 1014.2 |
| 20260906034548 | 72 | 360 | 0.0 | 1.7 | 0.00 | 0.00 | 0.00 | 93 | 1014.1 |
| 20260906033039 | 72 | 360 | 0.0 | 4.3 | 0.00 | 0.00 | 0.00 | 93 | 1014.0 |
| 20260906031602 | 72 | 360 | 0.0 | 0.9 | 0.00 | 0.00 | 0.00 | 93 | 1013.8 |
| 20260906030038 | 72 | 360 | 0.0 | 0.0 | 0.00 | 0.00 | 0.00 | 92 | 1013.8 |
| 20260906024553 | 73 | 360 | 0.0 | 0.0 | 0.00 | 0.00 | 0.00 | 92 | 1013.9 |
| 20260906023034 | 73 | 360 | 0.0 | 0.0 | 0.00 | 0.00 | 0.00 | 91 | 1013.6 |
| 20260906021530 | 74 | 360 | 0.0 | 0.0 | 0.00 | 0.00 | 0.00 | 91 | 1013.5 |
| 20260906020028 | 74 | 360 | 0.0 | 0.9 | 0.00 | 0.00 | 0.00 | 90 | 1013.4 |
| 20260906014527 | 75 | 360 | 0.0 | 0.0 | 0.00 | 0.00 | 0.00 | 89 | 1013.3 |
| 20260906013024 | 76 | 360 | 0.0 | 3.5 | 0.00 | 0.00 | 0.00 | 88 | 1012.9 |
| 20260906011524 | 77 | 360 | 0.0 | 7.0 | 0.00 | 0.00 | 0.00 | 87 | 1012.9 |
| 20260906010041 | 78 | 360 | 0.9 | 7.8 | 0.00 | 0.00 | 0.00 | 86 | 1012.9 |
| 20260906004523 | 78 | 360 | 0.0 | 5.2 | 0.00 | 0.00 | 0.00 | 85 | 1012.7 |
| 20260906003022 | 80 | 360 | 0.0 | 5.2 | 0.00 | 0.00 | 0.00 | 83 | 1012.5 |
| 20260906001530 | 81 | 360 | 0.0 | 0.9 | 0.00 | 0.00 | 0.00 | 82 | 1012.4 |
| 20260906000023 | 82 | 360 | 0.0 | 3.5 | 0.00 | 0.00 | 0.00 | 80 | 1012.5 |
| 20260905234521 | 83 | 360 | 0.0 | 3.5 | 0.00 | 0.00 | 0.00 | 78 | 1012.3 |
| 20260905233021 | 84 | 360 | 0.0 | 5.2 | 0.00 | 0.00 | 0.00 | 77 | 1012.0 |
| 20260905231520 | 85 | 360 | 0.0 | 0.9 | 0.00 | 0.00 | 0.00 | 77 | 1011.8 |
| 20260905230031 | 86 | 360 | 0.0 | 4.3 | 0.00 | 0.00 | 0.00 | 76 | 1011.8 |
| 20260905224520 | 86 | 360 | 0.0 | 4.3 | 0.00 | 0.00 | 0.00 | 76 | 1011.8 |
| 20260905223018 | 87 | 360 | 0.0 | 5.2 | 0.00 | 0.00 | 0.00 | 76 | 1011.8 |
| 20260905221517 | 89 | 360 | 0.0 | 4.3 | 0.00 | 0.00 | 0.00 | 73 | 1011.8 |
| 20260905220022 | 90 | 360 | 0.0 | 3.5 | 0.00 | 0.00 | 0.00 | 72 | 1011.6 |
| 20260905214517 | 90 | 360 | 0.0 | 0.9 | 0.00 | 0.00 | 0.00 | 70 | 1011.5 |
| 20260905213016 | 91 | 360 | 0.0 | 1.7 | 0.00 | 0.00 | 0.00 | 68 | 1011.5 |
| 20260905211539 | 91 | 360 | 0.0 | 7.8 | 0.00 | 0.00 | 0.00 | 69 | 1011.4 |
| 20260905210017 | 91 | 360 | 0.0 | 2.6 | 0.00 | 0.00 | 0.00 | 70 | 1011.4 |
| 20260905204515 | 91 | 360 | 0.0 | 1.7 | 0.00 | 0.00 | 0.00 | 70 | 1011.5 |
| 20260905203015 | 90 | 360 | 0.0 | 1.7 | 0.00 | 0.00 | 0.00 | 72 | 1011.8 |
| 20260905201515 | 91 | 360 | 0.0 | 1.7 | 0.00 | 0.00 | 0.00 | 69 | 1011.8 |
| 20260905200014 | 91 | 360 | 0.0 | 0.9 | 0.00 | 0.00 | 0.00 | 73 | 1011.8 |
| 20260905194514 | 91 | 360 | 0.0 | 0.9 | 0.00 | 0.00 | 0.00 | 71 | 1011.8 |
| 20260905193012 | 91 | 360 | 0.0 | 0.9 | 0.00 | 0.00 | 0.00 | 68 | 1011.9 |
| 20260905191511 | 91 | 360 | 0.0 | 1.7 | 0.00 | 0.00 | 0.00 | 68 | 1012.0 |
| 20260905190013 | 91 | 360 | 0.0 | 0.9 | 0.00 | 0.00 | 0.00 | 70 | 1012.1 |
| 20260905184509 | 91 | 360 | 0.0 | 2.6 | 0.00 | 0.00 | 0.00 | 72 | 1012.2 |
| 20260905183008 | 90 | 360 | 0.0 | 1.7 | 0.00 | 0.00 | 0.00 | 70 | 1012.3 |
| 20260905181507 | 91 | 360 | 0.0 | 0.9 | 0.00 | 0.00 | 0.00 | 71 | 1012.4 |
| 20260905180004 | 91 | 360 | 0.0 | 0.0 | 0.00 | 0.00 | 0.00 | 71 | 1012.4 |
| 20260905174503 | 90 | 360 | 0.0 | 2.6 | 0.00 | 0.00 | 0.00 | 72 | 1012.5 |
| 20260905173105 | 90 | 360 | 0.0 | 0.9 | 0.00 | 0.00 | 0.00 | 71 | 1012.6 |
| 20260905171559 | 90 | 360 | 0.0 | 0.9 | 0.00 | 0.00 | 0.00 | 73 | 1012.6 |
| 20260905170059 | 89 | 360 | 0.0 | 0.9 | 0.00 | 0.00 | 0.00 | 72 | 1012.8 |
| 20260905164555 | 89 | 360 | 0.0 | 1.7 | 0.00 | 0.00 | 0.00 | 74 | 1012.9 |
| 20260905163052 | 89 | 360 | 0.0 | 1.7 | 0.00 | 0.00 | 0.00 | 75 | 1012.8 |
| 20260905161550 | 88 | 360 | 0.0 | 1.7 | 0.00 | 0.00 | 0.00 | 75 | 1012.9 |
| 20260905160047 | 88 | 360 | 0.0 | 0.0 | 0.00 | 0.00 | 0.00 | 77 | 1012.9 |
| 20260905154545 | 88 | 360 | 0.0 | 0.9 | 0.00 | 0.00 | 0.00 | 77 | 1012.8 |
| 20260905153042 | 87 | 360 | 0.0 | 0.9 | 0.00 | 0.00 | 0.00 | 75 | 1012.6 |
| 20260905151546 | 87 | 360 | 0.0 | 0.0 | 0.00 | 0.00 | 0.00 | 75 | 1012.7 |
| 20260905150036 | 86 | 360 | 0.0 | 0.9 | 0.00 | 0.00 | 0.00 | 77 | 1012.6 |
| 20260905144532 | 85 | 360 | 0.0 | 0.9 | 0.00 | 0.00 | 0.00 | 76 | 1012.5 |
| 20260905143032 | 85 | 360 | 0.0 | 0.9 | 0.00 | 0.00 | 0.00 | 77 | 1012.4 |
| 20260905141528 | 84 | 360 | 0.0 | 0.9 | 0.00 | 0.00 | 0.00 | 80 | 1012.2 |
| 20260905140021 | 83 | 360 | 0.0 | 0.0 | 0.00 | 0.00 | 0.00 | 81 | 1012.3 |
| 20260905134517 | 82 | 360 | 0.0 | 0.0 | 0.00 | 0.00 | 0.00 | 85 | 1012.3 |
| 20260905133013 | 81 | 360 | 0.0 | 0.9 | 0.00 | 0.00 | 0.00 | 87 | 1012.3 |
| 20260905131509 | 79 | 360 | 0.0 | 0.0 | 0.00 | 0.00 | 0.00 | 90 | 1012.3 |
| 20260905130004 | 78 | 360 | 0.0 | 0.0 | 0.00 | 0.00 | 0.00 | 92 | 1012.2 |
| 20260905124502 | 76 | 360 | 0.0 | 0.0 | 0.00 | 0.00 | 0.00 | 94 | 1012.0 |